Date String (YYYY-MM-DD hh:mm:ss) UTC,Instrument flags,Ambient pressure (hPa),Sample flow (lpm),Bypass flow (lpm),Sample temperature (°C),Ambient temperature (°C),ASC tube jacket temperature (°C),LED temperature (°C),Box temperature (°C),Sample RH (%),Span deviation,Mass concentration (μg/m³),Mass concentration (μg/m³),Mass concentration (μg/m³)
DateTimeUTC,F1_M11,P_M11,Q1_M11,Q2_M11,T1_M11,T2_M11,T3_M11,T4_M11,T5_M11,U1_M11,ZSPAN_M11,X0_M11,X2_M11,X1_M11
2022-04-26 20:00:00,,0825.3,5.00,0.00,27.1,26.5,00.0,35.8,29.0,06.9,0004.0,0037.58,0013.43,0006.65
2022-04-26 20:01:00,,0825.4,4.99,0.00,27.1,26.6,00.0,35.9,29.0,06.8,0003.8,0037.23,0013.41,0006.63
2022-04-26 20:02:00,,0825.3,5.00,0.00,27.2,26.6,00.0,35.9,29.0,06.6,0003.3,0035.75,0013.34,0006.63
2022-04-26 20:03:00,,0825.4,5.01,0.00,27.2,26.6,00.0,35.9,29.1,06.5,0002.5,0036.97,0013.46,0006.63
2022-04-26 20:04:00,,0825.4,5.01,0.00,27.2,26.5,00.0,35.9,29.0,06.7,0002.8,0038.35,0013.56,0006.64
2022-04-26 20:05:00,,0825.3,5.00,0.00,27.2,26.5,00.0,35.9,29.0,06.4,0003.4,0038.20,0013.51,0006.63
2022-04-26 20:06:00,,0825.4,4.99,0.00,27.2,26.5,00.0,35.9,29.0,06.4,0003.1,0039.06,0013.60,0006.62
2022-04-26 20:07:00,,0825.3,5.01,0.00,27.2,26.5,00.0,35.9,29.0,06.5,0002.7,0039.46,0013.54,0006.61
2022-04-26 20:08:00,,0825.3,5.00,0.00,27.2,26.6,00.0,36.0,29.1,06.6,0001.9,0038.13,0013.53,0006.59
2022-04-26 20:09:00,,0825.3,4.99,0.00,27.2,26.6,00.0,36.0,29.1,06.7,0001.3,0037.41,0013.56,0006.58
2022-04-26 20:10:00,,0825.2,5.01,0.00,27.2,26.6,00.0,36.0,29.1,06.5,0001.3,0036.77,0013.63,0006.58
2022-04-26 20:11:00,,0825.2,5.00,0.00,27.2,26.6,00.0,36.0,29.1,06.6,0001.5,0036.60,0013.65,0006.59
2022-04-26 20:12:00,,0825.3,5.00,0.00,27.3,26.6,00.0,36.0,29.1,06.9,0001.6,0036.58,0013.63,0006.58
2022-04-26 20:13:00,,0825.3,5.00,0.00,27.3,26.7,00.0,36.0,29.1,06.5,0001.7,0036.71,0013.72,0006.59
2022-04-26 20:14:00,,0825.2,5.02,0.00,27.3,26.7,00.0,36.1,29.1,06.5,0001.5,0035.73,0013.71,0006.60
2022-04-26 20:15:00,,0825.3,4.99,0.00,27.3,26.7,00.0,36.1,29.2,06.5,0002.6,0034.31,0013.69,0006.63
2022-04-26 20:16:00,,0825.2,5.00,0.00,27.3,26.7,00.0,36.1,29.2,06.6,0001.7,0033.90,0013.66,0006.65
2022-04-26 20:17:00,,0825.2,4.99,0.00,27.3,26.7,00.0,36.1,29.2,06.4,0001.2,0033.44,0013.64,0006.67
2022-04-26 20:18:00,,0825.2,5.00,0.00,27.4,26.7,00.0,36.1,29.2,06.4,-000.4,0034.02,0013.77,0006.69
2022-04-26 20:19:00,,0825.2,4.99,0.00,27.4,26.7,00.0,36.1,29.3,06.3,-000.3,0034.74,0013.94,0006.70
2022-04-26 20:20:00,,0825.2,5.01,0.00,27.4,26.8,00.0,36.1,29.3,06.4,0001.6,0034.81,0013.93,0006.73
2022-04-26 20:21:00,,0825.2,5.01,0.00,27.4,26.8,00.0,36.2,29.3,06.3,0002.1,0035.34,0014.02,0006.75
2022-04-26 20:22:00,,0825.2,5.00,0.00,27.4,26.8,00.0,36.2,29.3,06.5,0002.0,0035.38,0014.11,0006.78
2022-04-26 20:23:00,,0825.2,4.99,0.00,27.4,26.8,00.0,36.2,29.3,06.5,0002.1,0035.89,0014.05,0006.80
2022-04-26 20:24:00,,0825.2,5.01,0.00,27.5,26.8,00.0,36.2,29.3,06.8,0002.0,0036.66,0014.07,0006.82
2022-04-26 20:25:00,,0825.2,5.01,0.00,27.5,26.8,00.0,36.2,29.4,06.6,0001.9,0036.83,0014.13,0006.82
2022-04-26 20:26:00,,0825.2,4.99,0.00,27.5,26.9,00.0,36.2,29.4,06.4,0001.2,0037.21,0014.20,0006.80
2022-04-26 20:27:00,,0825.2,4.99,0.00,27.5,26.9,00.0,36.3,29.4,06.4,0001.6,0036.99,0014.16,0006.79
2022-04-26 20:28:00,,0825.2,5.00,0.00,27.5,26.9,00.0,36.3,29.4,06.4,0002.2,0036.69,0014.11,0006.78
2022-04-26 20:29:00,,0825.2,5.01,0.00,27.5,26.9,00.0,36.3,29.4,06.5,0002.6,0036.24,0014.13,0006.77
2022-04-26 20:30:00,,0825.1,4.99,0.00,27.6,26.9,00.0,36.3,29.4,06.6,0002.4,0035.40,0013.93,0006.75
2022-04-26 20:31:00,,0825.1,5.00,0.00,27.6,26.9,00.0,36.3,29.5,06.7,0001.9,0034.84,0013.91,0006.74
2022-04-26 20:32:00,,0825.1,5.01,0.00,27.6,26.9,00.0,36.3,29.5,06.5,0002.2,0035.33,0013.79,0006.71
2022-04-26 20:33:00,,0825.1,5.00,0.00,27.6,27.0,00.0,36.4,29.5,06.5,0002.9,0035.30,0013.62,0006.67
2022-04-26 20:34:00,,0825.1,4.99,0.00,27.6,27.0,00.0,36.4,29.5,06.4,0002.9,0034.72,0013.64,0006.66
2022-04-26 20:35:00,,0825.1,5.01,0.00,27.6,27.0,00.0,36.4,29.5,06.3,0003.8,0034.78,0013.74,0006.66
2022-04-26 20:36:00,,0825.1,4.99,0.00,27.7,27.0,00.0,36.4,29.5,06.4,0004.1,0037.65,0014.00,0006.65
2022-04-26 20:37:00,,0825.1,5.00,0.00,27.7,27.0,00.0,36.4,29.5,06.3,0003.9,0039.64,0014.16,0006.64
2022-04-26 20:38:00,,0825.1,4.99,0.00,27.7,27.1,00.0,36.4,29.5,06.2,0003.9,0040.48,0014.22,0006.63
2022-04-26 20:39:00,,0825.1,5.00,0.00,27.7,27.1,00.0,36.4,29.5,06.2,0003.7,0041.11,0014.31,0006.63
2022-04-26 20:40:00,,0825.1,5.01,0.00,27.7,27.1,00.0,36.5,29.6,06.2,0004.1,0040.62,0014.23,0006.65
2022-04-26 20:41:00,,0825.1,5.00,0.00,27.7,27.1,00.0,36.5,29.6,06.4,0004.8,0041.35,0014.33,0006.67
2022-04-26 20:42:00,,0825.0,4.99,0.00,27.7,27.1,00.0,36.5,29.6,06.5,0005.3,0042.66,0014.35,0006.67
2022-04-26 20:43:00,,0825.0,4.99,0.00,27.8,27.2,00.0,36.5,29.6,06.3,0005.1,0043.06,0014.33,0006.66
2022-04-26 20:44:00,,0824.9,5.00,0.00,27.8,27.2,00.0,36.5,29.6,06.3,0004.2,0043.56,0014.44,0006.67
2022-04-26 20:45:00,,0824.9,5.00,0.00,27.8,27.2,00.0,36.5,29.6,06.5,0004.5,0044.83,0014.61,0006.68
2022-04-26 20:46:00,,0824.9,5.02,0.00,27.8,27.2,00.0,36.6,29.6,06.6,0003.8,0044.35,0014.44,0006.68
2022-04-26 20:47:00,,0824.9,5.00,0.00,27.8,27.2,00.0,36.6,29.7,06.6,0003.1,0041.91,0014.13,0006.67
2022-04-26 20:48:00,,0825.0,4.99,0.00,27.8,27.2,00.0,36.6,29.7,06.5,0002.7,0039.48,0013.88,0006.66
2022-04-26 20:49:00,,0824.9,4.99,0.00,27.8,27.2,00.0,36.6,29.7,06.3,0002.3,0039.28,0013.84,0006.68
2022-04-26 20:50:00,,0824.9,5.02,0.00,27.8,27.2,00.0,36.6,29.6,06.4,0002.1,0038.42,0013.75,0006.68
2022-04-26 20:51:00,,0824.9,4.99,0.00,27.8,27.2,00.0,36.6,29.6,06.4,0002.8,0039.45,0013.77,0006.65
2022-04-26 20:52:00,,0824.8,4.99,0.00,27.8,27.2,00.0,36.7,29.7,06.3,0002.3,0040.09,0013.69,0006.65
2022-04-26 20:53:00,,0824.7,5.01,0.00,27.9,27.2,00.0,36.7,29.7,06.4,0001.7,0039.77,0013.64,0006.64
2022-04-26 20:54:00,,0824.7,5.00,0.00,27.9,27.2,00.0,36.7,29.7,06.4,0000.1,0038.32,0013.58,0006.64
2022-04-26 20:55:00,,0824.7,5.00,0.00,27.9,27.3,00.0,36.7,29.7,06.4,-000.2,0037.79,0013.45,0006.63
2022-04-26 20:56:00,,0824.6,5.00,0.00,27.9,27.3,00.0,36.7,29.8,06.4,-000.4,0036.74,0013.40,0006.63
2022-04-26 20:57:00,,0824.6,5.00,0.00,27.9,27.3,00.0,36.7,29.8,06.3,-001.2,0036.96,0013.40,0006.63
2022-04-26 20:58:00,,0824.6,5.01,0.00,27.9,27.3,00.0,36.7,29.8,06.1,-000.5,0038.02,0013.51,0006.63
2022-04-26 20:59:00,,0824.6,5.00,0.00,28.0,27.3,00.0,36.7,29.8,06.3,-000.4,0038.43,0013.63,0006.64
